• In United Kingdom
  • List of Countries
  • For 7 days
  • Water Temperature
  • Satellite Maps
  • Weather Map
  • Weather Widgets
  • user-avatar
    Login

    Hourly Weather Katerini

    Today, 18 August, Friday

    Time Temperature Precipitation Wind Pressure Humidity
    00:00 +28°C° 0 mm 2 mps 758 mmHg 39%
    01:00 +28°C° 0 mm 2 mps 758 mmHg 40%
    02:00 +28°C° 0 mm 2 mps 758 mmHg 41%
    03:00 +28°C° 0 mm 2 mps 758 mmHg 42%
    04:00 +27°C° 0 mm 2 mps 758 mmHg 44%
    05:00 +27°C° 0 mm 1 mps 759 mmHg 45%
    06:00 +27°C° 0 mm 2 mps 759 mmHg 44%
    07:00 +28°C° 0 mm 2 mps 759 mmHg 42%
    08:00 +29°C° 0 mm 2 mps 759 mmHg 41%
    09:00 +31°C° 0 mm 2 mps 759 mmHg 37%
    10:00 +32°C° 0 mm 2 mps 759 mmHg 33%
    11:00 +35°C° 0 mm 2 mps 759 mmHg 29%
    12:00 +35°C° 0 mm 2 mps 759 mmHg 28%
    13:00 +36°C° 0 mm 2 mps 758 mmHg 27%
    14:00 +37°C° 0 mm 2 mps 758 mmHg 26%
    15:00 +36°C° 0 mm 2 mps 758 mmHg 26%
    16:00 +36°C° 0 mm 2 mps 758 mmHg 27%
    17:00 +36°C° 0 mm 2 mps 758 mmHg 28%
    18:00 +34°C° 0 mm 2 mps 758 mmHg 30%
    19:00 +32°C° 0 mm 2 mps 758 mmHg 32%
    20:00 +30°C° 0 mm 2 mps 758 mmHg 35%
    21:00 +29°C° 0 mm 2 mps 758 mmHg 36%
    22:00 +29°C° 0 mm 2 mps 758 mmHg 37%
    23:00 +28°C° 0 mm 2 mps 759 mmHg 39%

    Tomorrow, 19 August, Saturday

    Time Temperature Precipitation Wind Pressure Humidity
    00:00 +27°C° 0 mm 2 mps 759 mmHg 40%
    01:00 +27°C° 0 mm 2 mps 759 mmHg 41%
    02:00 +27°C° 0 mm 2 mps 759 mmHg 43%
    03:00 +26°C° 0 mm 2 mps 759 mmHg 44%
    04:00 +26°C° 0 mm 2 mps 759 mmHg 45%
    05:00 +25°C° 0 mm 2 mps 759 mmHg 47%
    06:00 +27°C° 0 mm 2 mps 759 mmHg 44%
    07:00 +28°C° 0 mm 2 mps 759 mmHg 41%
    08:00 +30°C° 0 mm 2 mps 759 mmHg 37%
    09:00 +31°C° 0 mm 2 mps 759 mmHg 34%
    10:00 +33°C° 0 mm 1 mps 759 mmHg 30%
    11:00 +35°C° 0 mm 1 mps 759 mmHg 26%
    12:00 +37°C° 0 mm 2 mps 758 mmHg 25%
    13:00 +37°C° 0 mm 2 mps 758 mmHg 24%
    14:00 +38°C° 0 mm 3 mps 757 mmHg 23%
    15:00 +37°C° 0 mm 3 mps 757 mmHg 24%
    16:00 +37°C° 0 mm 3 mps 757 mmHg 25%
    17:00 +36°C° 0 mm 3 mps 756 mmHg 26%
    18:00 +34°C° 0 mm 3 mps 757 mmHg 30%
    19:00 +31°C° 0 mm 3 mps 757 mmHg 33%
    20:00 +30°C° 0 mm 2 mps 757 mmHg 36%
    21:00 +29°C° 0 mm 2 mps 757 mmHg 37%
    22:00 +29°C° 0 mm 2 mps 758 mmHg 37%
    23:00 +28°C° 0 mm 2 mps 758 mmHg 38%

    Day after tomorrow, 20 August, Sunday

    Time Temperature Precipitation Wind Pressure Humidity
    00:00 +28°C° 0 mm 2 mps 758 mmHg 38%
    01:00 +27°C° 0 mm 2 mps 758 mmHg 39%
    02:00 +27°C° 0 mm 2 mps 757 mmHg 40%
    03:00 +27°C° 0 mm 2 mps 757 mmHg 40%
    04:00 +26°C° 0 mm 1 mps 757 mmHg 41%
    05:00 +26°C° 0 mm 1 mps 757 mmHg 42%
    06:00 +27°C° 0 mm 1 mps 757 mmHg 40%
    07:00 +29°C° 0 mm 1 mps 757 mmHg 38%
    08:00 +30°C° 0 mm 1 mps 757 mmHg 36%
    09:00 +32°C° 0 mm 1 mps 757 mmHg 33%
    10:00 +34°C° 0 mm 1 mps 757 mmHg 30%
    11:00 +35°C° 0 mm 1 mps 757 mmHg 28%
    12:00 +36°C° 0 mm 1 mps 756 mmHg 27%
    13:00 +37°C° 0 mm 2 mps 756 mmHg 26%
    14:00 +38°C° 0 mm 2 mps 755 mmHg 25%
    15:00 +37°C° 0 mm 3 mps 755 mmHg 27%
    16:00 +37°C° 0 mm 3 mps 755 mmHg 29%
    17:00 +36°C° 0 mm 3 mps 754 mmHg 30%
    18:00 +34°C° 0.1 mm 3 mps 755 mmHg 35%
    19:00 +33°C° 0.1 mm 3 mps 755 mmHg 39%
    20:00 +30°C° 0.1 mm 2 mps 755 mmHg 44%
    21:00 +29°C° 0.4 mm 2 mps 755 mmHg 46%
    22:00 +29°C° 0.4 mm 1 mps 755 mmHg 48%
    23:00 +28°C° 0.4 mm 1 mps 756 mmHg 50%

    21 August, Monday

    Time Temperature Precipitation Wind Pressure Humidity
    00:00 +28°C° 0.3 mm 1 mps 756 mmHg 51%
    01:00 +27°C° 0.3 mm 2 mps 756 mmHg 51%
    02:00 +27°C° 0.3 mm 2 mps 755 mmHg 52%
    03:00 +26°C° 0.5 mm 3 mps 755 mmHg 56%
    04:00 +26°C° 0.5 mm 3 mps 755 mmHg 60%
    05:00 +25°C° 0.5 mm 3 mps 755 mmHg 64%
    06:00 +26°C° 0.3 mm 3 mps 755 mmHg 62%
    07:00 +26°C° 0.3 mm 4 mps 756 mmHg 61%
    08:00 +27°C° 0.3 mm 4 mps 756 mmHg 59%
    09:00 +29°C° 0 mm 4 mps 756 mmHg 53%
    10:00 +32°C° 0 mm 4 mps 756 mmHg 47%
    11:00 +33°C° 0 mm 3 mps 756 mmHg 41%
    12:00 +34°C° 0.1 mm 3 mps 755 mmHg 39%
    13:00 +35°C° 0.1 mm 3 mps 755 mmHg 37%
    14:00 +35°C° 0.1 mm 3 mps 754 mmHg 35%
    15:00 +35°C° 0.4 mm 3 mps 754 mmHg 36%
    16:00 +34°C° 0.4 mm 3 mps 754 mmHg 38%
    17:00 +33°C° 0.4 mm 3 mps 754 mmHg 39%
    18:00 +31°C° 0.2 mm 3 mps 755 mmHg 42%
    19:00 +30°C° 0.2 mm 3 mps 755 mmHg 44%
    20:00 +29°C° 0.2 mm 3 mps 755 mmHg 47%
    21:00 +28°C° 0 mm 3 mps 756 mmHg 47%
    22:00 +27°C° 0 mm 4 mps 756 mmHg 48%
    23:00 +26°C° 0 mm 4 mps 757 mmHg 48%

    22 August, Tuesday

    Time Temperature Precipitation Wind Pressure Humidity
    00:00 +25°C° 0 mm 4 mps 757 mmHg 49%
    01:00 +23°C° 0 mm 4 mps 757 mmHg 49%
    02:00 +22°C° 0 mm 4 mps 757 mmHg 49%
    03:00 +22°C° 0 mm 4 mps 757 mmHg 49%
    04:00 +22°C° 0 mm 4 mps 757 mmHg 49%
    05:00 +21°C° 0 mm 4 mps 758 mmHg 50%
    06:00 +22°C° 0 mm 4 mps 758 mmHg 47%
    07:00 +23°C° 0 mm 4 mps 758 mmHg 45%
    08:00 +25°C° 0 mm 4 mps 759 mmHg 43%
    09:00 +26°C° 0 mm 4 mps 759 mmHg 38%
    10:00 +28°C° 0 mm 4 mps 759 mmHg 34%
    11:00 +30°C° 0 mm 4 mps 758 mmHg 29%
    12:00 +30°C° 0 mm 3 mps 758 mmHg 27%
    13:00 +31°C° 0 mm 3 mps 758 mmHg 25%
    14:00 +33°C° 0 mm 3 mps 757 mmHg 23%
    15:00 +33°C° 0 mm 3 mps 757 mmHg 23%
    16:00 +33°C° 0 mm 3 mps 757 mmHg 22%
    17:00 +33°C° 0 mm 3 mps 757 mmHg 22%
    18:00 +30°C° 0 mm 2 mps 757 mmHg 25%
    19:00 +28°C° 0 mm 2 mps 758 mmHg 28%
    20:00 +26°C° 0 mm 2 mps 758 mmHg 32%
    21:00 +25°C° 0 mm 2 mps 759 mmHg 34%
    22:00 +24°C° 0 mm 2 mps 759 mmHg 35%
    23:00 +24°C° 0 mm 1 mps 759 mmHg 37%

    23 August, Wednesday

    Time Temperature Precipitation Wind Pressure Humidity
    00:00 +23°C° 0 mm 2 mps 760 mmHg 37%
    01:00 +23°C° 0 mm 2 mps 760 mmHg 38%
    02:00 +21°C° 0 mm 2 mps 760 mmHg 38%
    03:00 +21°C° 0 mm 3 mps 760 mmHg 38%
    04:00 +20°C° 0 mm 3 mps 760 mmHg 39%
    05:00 +20°C° 0 mm 3 mps 760 mmHg 40%
    06:00 +21°C° 0 mm 3 mps 760 mmHg 38%
    07:00 +23°C° 0 mm 2 mps 760 mmHg 36%
    08:00 +25°C° 0 mm 2 mps 761 mmHg 33%
    09:00 +26°C° 0 mm 2 mps 760 mmHg 31%
    10:00 +28°C° 0 mm 2 mps 760 mmHg 28%
    11:00 +30°C° 0 mm 2 mps 760 mmHg 25%
    12:00 +31°C° 0 mm 2 mps 760 mmHg 24%
    13:00 +32°C° 0 mm 2 mps 759 mmHg 22%
    14:00 +34°C° 0 mm 2 mps 759 mmHg 21%
    15:00 +34°C° 0 mm 2 mps 759 mmHg 22%
    16:00 +32°C° 0 mm 2 mps 759 mmHg 23%
    17:00 +33°C° 0 mm 3 mps 758 mmHg 23%
    18:00 +30°C° 0 mm 3 mps 759 mmHg 30%
    19:00 +28°C° 0 mm 2 mps 759 mmHg 36%
    20:00 +26°C° 0 mm 2 mps 759 mmHg 43%
    21:00 +25°C° 0 mm 2 mps 760 mmHg 45%
    22:00 +24°C° 0 mm 1 mps 760 mmHg 47%
    23:00 +24°C° 0 mm 1 mps 760 mmHg 49%
    Show more